Regional Weather Roundup
Issued by NWS

Home | Current Version | Previous Version | Graphics & Text | Print | Product List | Glossary On
Versions: 1 2 3 4 5 6 7 8 9 10 11 12 13 14 15 16 17 18 19 20 21 22 23 24 25 26 27 28 29 30 31 32 33 34 35 36 37 38 39 40 41 42 43 44 45 46 47 48 49 50
214
ASUS45 KTFX 141710
RWRMT
MONTANA REGIONAL WEATHER ROUNDUP
NATIONAL WEATHER SERVICE GREAT FALLS MT
1000 AM MST THU DEC 14 2017

NOTE: "FAIR" INDICATES FEW OR NO CLOUDS BELOW 12000 FEET WITH NO
SIGNIFICANT WEATHER AND/OR OBSTRUCTIONS TO VISIBILITY.

MTZ001>007-043-141800-
WEST OF THE DIVIDE

CITY           SKY/WX    TMP DP  RH WIND       PRES   REMARKS
KALISPELL      CLOUDY    26  23  88 CALM      30.50F
MISSOULA       CLOUDY    29  24  82 E6        30.50F WCI  23
BUTTE          FAIR      22  18  85 S3        30.42S
MULLAN PASS    FAIR      25  22  88 S8        30.34F WCI  16
ANACONDA         N/A     21  16  79 SW5       30.43F
DEER LODGE       N/A     25  25 100 CALM      30.47R
EUREKA           N/A     23  19  86 MISG      30.54R
HAMILTON         N/A     25  23  93 CALM      30.48F VSB 3/4
LIBBY            N/A     28  25  86 CALM      30.50R
PLAINS           N/A     27  21  77 CALM      30.48F
RONAN            N/A     28  25  89 CALM      30.47F
THOMPSON FALLS   N/A     28  25  89 E8        30.52F WCI  20
$$

MTZ008-052>055-141800-
SOUTHWEST MONTANA

CITY           SKY/WX    TMP DP  RH WIND       PRES   REMARKS
BOZEMAN        FOG       22  21  96 CALM      30.46F VSB 1/4
DILLON         FAIR      18  14  84 SW8       30.43F WCI   8
W YELLOWSTONE  PTSUNNY    5   1  85 CALM      30.43S
ENNIS          CLOUDY    16  14  93 CALM      30.48S
THREE FORKS      N/A     20  18  92 CALM      30.40F VSB 0
TWIN BRIDGES     N/A     16   9  74 CALM      30.38R
$$

MTZ009-010-012-014-046-048-049-054-141800-
EAST SLOPES AND CENTRAL MONTANA

CITY           SKY/WX    TMP DP  RH WIND       PRES   REMARKS
CUT BANK       FAIR      27  20  75 CALM      30.26F
GREAT FALLS    FAIR      32  23  69 SW14      30.32F WCI  22
MALMSTROM AFB  MOSUNNY   32  25  73 SW12      30.33F WCI  23
HELENA         FOG       20  20 100 W3        30.45F VSB 3/4
CHOTEAU          N/A     27  19  74 S5        30.30F
$$

MTZ011-013-016-021-045-047-050-051-141800-
NORTH CENTRAL MONTANA

CITY           SKY/WX    TMP DP  RH WIND       PRES   REMARKS
HAVRE          FAIR      27  22  81 W8        30.33F WCI  19
LEWISTOWN      FAIR      32  24  72 W7        30.31S WCI  26
N BAR RANCH    FAIR      36  23  60 NW18      30.30S WCI  25
CHINOOK          N/A     28  25  86 W6        30.32F WCI  22
$$

MTZ017>020-022>027-061-062-141800-
NORTHEAST MONTANA

CITY           SKY/WX    TMP DP  RH WIND       PRES   REMARKS
GLASGOW        FAIR      33  25  72 NW12      30.29S WCI  24
GLENDIVE       CLOUDY    33  27  78 NW17      30.25R WCI  22
JORDAN           N/A     34  24  67 NW16      30.30S WCI  24
SIDNEY         CLOUDY    34  26  72 NW15      30.24R WCI  24
WOLF POINT     CLOUDY    37  26  64 NW14G23   30.27S WCI  28
MALTA          MOSUNNY   28  23  80 W9        30.32F WCI  20
PLENTYWOOD       N/A     30  25  80 NW14      30.20R WCI  20
POPLAR           N/A     34  25  69 NW17G23   30.26R WCI  23
SCOBEY           N/A     32  21  64 W15       30.19R WCI  22
$$

MTZ028>42-056>058-141800-
SOUTHCENTRAL AND SOUTHEAST MONTANA

CITY           SKY/WX    TMP DP  RH WIND       PRES   REMARKS
BAKER          CLOUDY    31  29  92 NW16      30.23R WCI  20
BILLINGS       FAIR      34  23  64 SW6       30.34R WCI  29
LIVINGSTON     FAIR      31  25  78 W23       30.37F WCI  18
MILES CITY     CLOUDY    35  24  64 NW16      30.30R WCI  25
BIG TIMBER     SUNNY     32  25  74 SW20G33   30.35F WCI  20
EKALAKA          N/A     29  24  81 NW14      30.18R WCI  18
FORSYTH          N/A     34  25  69 W9        30.33S WCI  26
LAUREL           N/A     41  23  48 W7        30.35S
ROUNDUP          N/A     40  21  46 NW12      30.19S
$$

REGIONAL REPORTS...DAKOTAS

CITY           SKY/WX    TMP DP  RH WIND       PRES   REMARKS
WILLISTON      CLOUDY    34  26  72 NW15G23   30.20S WCI  24
MINOT          CLOUDY    32  23  69 NW18      30.12S WCI  20
DICKINSON      PTSUNNY   31  24  75 NW18G28   30.15R WCI  19
BEACH          MIX PCPN  30  30 100 NW20      30.24R WCI  18
CROSBY         CLOUDY    30  27  86 NW20      30.17R WCI  18
TIOGA          CLOUDY    28  28 100 NW16      30.17R WCI  17
WATFORD CITY   CLOUDY    32  25  74 NW14      30.19S WCI  22
BISMARCK       CLOUDY    32  27  81 N10       30.13R WCI  24
GRAND FORKS    CLOUDY    21  17  84 N20       30.08R WCI   6
FARGO          CLOUDY    24  19  81 N13       30.08S WCI  12
BUFFALO SD       N/A     32  28  85 NW22G33   30.13R WCI  19
RAPID CITY     FLURRIES  33  23  66 NW31G43   30.18R WCI  19
$$

REGIONAL REPORTS...WYOMING/IDAHO/WASHINGTON

CITY           SKY/WX    TMP DP  RH WIND       PRES   REMARKS
GILLETTE       LGT SNOW  28  25  88 N15       30.27R FOG     WCI  16
SHERIDAN       FAIR      38  21  50 NW26G33   30.31S WCI  26
BUFFALO WY     FAIR      36  18  48 N24G40    30.26R WCI  24
CODY           FAIR      34  20  56 S5        30.33R
YELLOWSTONE LA   N/A     11  10  96 CALM      30.41R
IDAHO FALLS    FOG       21  21 100 CALM      30.51R VSB 1/2
SALMON         CLOUDY    26  21  81 CALM      30.54S
BOISE          LGT SNOW  25  21  85 S9        30.57R FOG     WCI  15
SPOKANE        CLOUDY    29  27  92 W6        30.52R WCI  23
$$

REGIONAL REPORTS...ALBERTA

CITY           SKY/WX    TMP DP  RH WIND       PRES   REMARKS
EDMONTON       MOCLDY    27  21  80 SW8       30.12F WCI  18
CALGARY        MOCLDY    28  19  69 S2        30.18F
LETHBRIDGE     MOSUNNY   28  21  74 S7        30.24F WCI  21
MEDICINE HAT   PTSUNNY   25  21  86 SW10      30.28F WCI  15
$$

REGIONAL REPORTS...SASKATCHEWAN

CITY           SKY/WX    TMP DP  RH WIND       PRES   REMARKS
SWIFT CURRENT  SUNNY     23  21  93 W16       30.20F WCI  10
REGINA         CLOUDY    28  25  86 W17       30.14F WCI  16
SASKATOON      PTSUNNY   30  25  80 NW15      30.17F WCI  19
$$




USA.gov is the U.S. government's official web portal to all federal, state and local government web resources and services.